星链-2028 (STARLINK-2028 )
导读 | 豆包AI
STARLINK-2028是美国太空探索技术公司Starlink星链互联网星座中的一颗卫星,于2021年2月16日发射入轨。星链计划旨在构建全球卫星互联网,实现全球覆盖的高速网络服务,该卫星承担着通信组网任务,为全球偏远地区等提供互联网接入支持,推动全球互联网络基础设施的建设。
Basic Information
目录编号:
47646
目录名称:
STARLINK-2028
国际标识:
2021-012AC
轨道中心:
EARTH
卫星名称:
星链-2028
卫星全名:
星链-2028 (STARLINK-2028 )
卫星状态:
已陨落 最后检测时间 2025-01-13
发射日期:
2021-02-16 UTC
国别 :
美国
(US)
星等 :
--
Orbit Information
| 数据来源 | 国际轨道数据 |
| 星历时间: | 2025-01-13T19:48:31+0800 轨道信息已过期496天 |
| 半长轴: | 6513.687km |
| 偏心率: | 0.000388 |
| 轨道倾角: | 53.022° |
| 近地点辐角 | 340.410° |
| 升交点赤经 | 67.422° |
| 平近点角 | 123.525° |
| 近地点: | 133.024km |
| 远地点: | 138.08km |
| 周期: | 87.197分钟 |
| 每日圈数: | 16.514389 |
Detailed Information
固有亮度:
5
最大亮度:
2.5
卫星平台:
Starlink V1.0
覆盖范围:
全球
运营商:
太空探索技术公司
运营商所在国:
美国
制造商(研发单位):
太空探索技术公司
制造商所在国:
美国
使用方式:
暂无
Satellite Introduction
星链(Starlink)计划是由太空探索技术公司(SpaceX)提出的一个巨型低轨卫星互联网星座项目,计划在2019年至2024年间在太空搭建由约1.2万颗卫星组成的“星链”网络,其中1584颗将部署在地球上空550千米处的近地轨道,并从2020年开始工作。该卫星仍在工作。

